Transaction Overview
Transaction ID4492
ChargeBox ID7CS1-6-2247-00026
Connector ID1
OCPP ID Tag53B46759
Start Date/TimeToday at 06:16
Start Value10226252
Stop Date/Time
Stop Value
Stop Reason
Stop Event Actor

Intermediate Meter Values
Value Timestamp Value Reading Context Format Measurand Location Unit Phase
2026-05-06T06:17:46.896Z 10226352.0 Sample.Periodic Raw Energy.Active.Import.Register Outlet Wh L1
2026-05-06T06:17:46.896Z 27.85 Sample.Periodic Raw Current.Import Outlet A L1
2026-05-06T06:17:46.896Z 236.25 Sample.Periodic Raw Voltage Outlet V L1
2026-05-06T06:17:46.896Z 33 Sample.Periodic Raw Temperature Body Celsius
2026-05-06T06:17:46.896Z 32.00 Sample.Periodic Raw Current.Offered Outlet A L1
2026-05-06T06:17:46.896Z 7680.00 Sample.Periodic Raw Power.Offered Outlet W L1
2026-05-06T06:18:46.897Z 10226460.7 Sample.Periodic Raw Energy.Active.Import.Register Outlet Wh L1
2026-05-06T06:18:46.897Z 27.92 Sample.Periodic Raw Current.Import Outlet A L1
2026-05-06T06:18:46.897Z 236.23 Sample.Periodic Raw Voltage Outlet V L1
2026-05-06T06:19:46.898Z 10226569.8 Sample.Periodic Raw Energy.Active.Import.Register Outlet Wh L1
2026-05-06T06:19:46.898Z 27.82 Sample.Periodic Raw Current.Import Outlet A L1
2026-05-06T06:19:46.898Z 237.48 Sample.Periodic Raw Voltage Outlet V L1
2026-05-06T06:20:46.897Z 10226680.7 Sample.Periodic Raw Energy.Active.Import.Register Outlet Wh L1
2026-05-06T06:20:46.897Z 237.39 Sample.Periodic Raw Voltage Outlet V L1
2026-05-06T06:21:46.897Z 10226790.3 Sample.Periodic Raw Energy.Active.Import.Register Outlet Wh L1
2026-05-06T06:21:46.897Z 27.80 Sample.Periodic Raw Current.Import Outlet A L1
2026-05-06T06:21:46.897Z 237.69 Sample.Periodic Raw Voltage Outlet V L1
2026-05-06T06:21:46.897Z 34 Sample.Periodic Raw Temperature Body Celsius
2026-05-06T06:22:46.897Z 10226901.1 Sample.Periodic Raw Energy.Active.Import.Register Outlet Wh L1
2026-05-06T06:22:46.897Z 237.58 Sample.Periodic Raw Voltage Outlet V L1
2026-05-06T06:23:46.897Z 10227010.4 Sample.Periodic Raw Energy.Active.Import.Register Outlet Wh L1
2026-05-06T06:23:46.897Z 27.81 Sample.Periodic Raw Current.Import Outlet A L1
2026-05-06T06:23:46.897Z 237.81 Sample.Periodic Raw Voltage Outlet V L1
2026-05-06T06:24:46.896Z 10227120.1 Sample.Periodic Raw Energy.Active.Import.Register Outlet Wh L1
2026-05-06T06:24:46.896Z 237.71 Sample.Periodic Raw Voltage Outlet V L1
2026-05-06T06:24:46.896Z 35 Sample.Periodic Raw Temperature Body Celsius
2026-05-06T06:25:46.896Z 10227229.6 Sample.Periodic Raw Energy.Active.Import.Register Outlet Wh L1
2026-05-06T06:25:46.896Z 237.68 Sample.Periodic Raw Voltage Outlet V L1
2026-05-06T06:26:46.897Z 10227340.9 Sample.Periodic Raw Energy.Active.Import.Register Outlet Wh L1
2026-05-06T06:27:46.897Z 10227450.4 Sample.Periodic Raw Energy.Active.Import.Register Outlet Wh L1
2026-05-06T06:27:46.897Z 27.77 Sample.Periodic Raw Current.Import Outlet A L1
2026-05-06T06:27:46.897Z 237.92 Sample.Periodic Raw Voltage Outlet V L1
2026-05-06T06:27:46.897Z 36 Sample.Periodic Raw Temperature Body Celsius
2026-05-06T06:28:46.897Z 10227561.4 Sample.Periodic Raw Energy.Active.Import.Register Outlet Wh L1
2026-05-06T06:28:46.897Z 27.83 Sample.Periodic Raw Current.Import Outlet A L1
2026-05-06T06:29:46.897Z 10227671.0 Sample.Periodic Raw Energy.Active.Import.Register Outlet Wh L1
2026-05-06T06:29:46.897Z 238.17 Sample.Periodic Raw Voltage Outlet V L1
2026-05-06T06:30:46.897Z 10227780.5 Sample.Periodic Raw Energy.Active.Import.Register Outlet Wh L1
2026-05-06T06:30:46.897Z 237.86 Sample.Periodic Raw Voltage Outlet V L1
2026-05-06T06:30:46.897Z 37 Sample.Periodic Raw Temperature Body Celsius
2026-05-06T06:31:46.897Z 10227890.4 Sample.Periodic Raw Energy.Active.Import.Register Outlet Wh L1
2026-05-06T06:31:46.897Z 28.05 Sample.Periodic Raw Current.Import Outlet A L1
2026-05-06T06:31:46.897Z 236.12 Sample.Periodic Raw Voltage Outlet V L1
2026-05-06T06:32:46.897Z 10227999.9 Sample.Periodic Raw Energy.Active.Import.Register Outlet Wh L1
2026-05-06T06:32:46.897Z 236.24 Sample.Periodic Raw Voltage Outlet V L1
2026-05-06T06:32:46.897Z 38 Sample.Periodic Raw Temperature Body Celsius
2026-05-06T06:33:46.896Z 10228111.0 Sample.Periodic Raw Energy.Active.Import.Register Outlet Wh L1
2026-05-06T06:33:46.896Z 236.02 Sample.Periodic Raw Voltage Outlet V L1
2026-05-06T06:34:46.897Z 10228222.3 Sample.Periodic Raw Energy.Active.Import.Register Outlet Wh L1
2026-05-06T06:34:46.897Z 27.88 Sample.Periodic Raw Current.Import Outlet A L1
2026-05-06T06:35:46.897Z 10228331.9 Sample.Periodic Raw Energy.Active.Import.Register Outlet Wh L1
2026-05-06T06:35:46.897Z 27.89 Sample.Periodic Raw Current.Import Outlet A L1
2026-05-06T06:35:46.897Z 237.45 Sample.Periodic Raw Voltage Outlet V L1
2026-05-06T06:35:46.897Z 39 Sample.Periodic Raw Temperature Body Celsius
2026-05-06T06:36:46.897Z 10228441.8 Sample.Periodic Raw Energy.Active.Import.Register Outlet Wh L1
2026-05-06T06:36:46.897Z 27.84 Sample.Periodic Raw Current.Import Outlet A L1
2026-05-06T06:37:46.897Z 10228551.2 Sample.Periodic Raw Energy.Active.Import.Register Outlet Wh L1
2026-05-06T06:37:46.897Z 237.50 Sample.Periodic Raw Voltage Outlet V L1
2026-05-06T06:38:46.897Z 10228662.1 Sample.Periodic Raw Energy.Active.Import.Register Outlet Wh L1
2026-05-06T06:38:46.897Z 28.03 Sample.Periodic Raw Current.Import Outlet A L1
2026-05-06T06:38:46.897Z 236.35 Sample.Periodic Raw Voltage Outlet V L1
2026-05-06T06:39:46.896Z 10228772.1 Sample.Periodic Raw Energy.Active.Import.Register Outlet Wh L1
2026-05-06T06:39:46.896Z 27.98 Sample.Periodic Raw Current.Import Outlet A L1
2026-05-06T06:39:46.896Z 236.64 Sample.Periodic Raw Voltage Outlet V L1
2026-05-06T06:39:46.896Z 40 Sample.Periodic Raw Temperature Body Celsius
2026-05-06T06:40:46.898Z 10228881.7 Sample.Periodic Raw Energy.Active.Import.Register Outlet Wh L1
2026-05-06T06:40:46.898Z 27.87 Sample.Periodic Raw Current.Import Outlet A L1
2026-05-06T06:40:46.898Z 237.52 Sample.Periodic Raw Voltage Outlet V L1
2026-05-06T06:41:46.897Z 10228993.3 Sample.Periodic Raw Energy.Active.Import.Register Outlet Wh L1
2026-05-06T06:41:46.897Z 237.59 Sample.Periodic Raw Voltage Outlet V L1
2026-05-06T06:42:46.896Z 10229103.0 Sample.Periodic Raw Energy.Active.Import.Register Outlet Wh L1
2026-05-06T06:42:46.896Z 27.91 Sample.Periodic Raw Current.Import Outlet A L1
2026-05-06T06:42:46.896Z 237.35 Sample.Periodic Raw Voltage Outlet V L1
2026-05-06T06:42:46.896Z 41 Sample.Periodic Raw Temperature Body Celsius
2026-05-06T06:43:46.898Z 10229212.9 Sample.Periodic Raw Energy.Active.Import.Register Outlet Wh L1
2026-05-06T06:43:46.898Z 237.83 Sample.Periodic Raw Voltage Outlet V L1
2026-05-06T06:44:46.896Z 10229322.7 Sample.Periodic Raw Energy.Active.Import.Register Outlet Wh L1
2026-05-06T06:44:46.896Z 237.88 Sample.Periodic Raw Voltage Outlet V L1
2026-05-06T06:45:46.897Z 10229434.0 Sample.Periodic Raw Energy.Active.Import.Register Outlet Wh L1
2026-05-06T06:46:46.898Z 10229543.4 Sample.Periodic Raw Energy.Active.Import.Register Outlet Wh L1
2026-05-06T06:46:46.898Z 28.02 Sample.Periodic Raw Current.Import Outlet A L1
2026-05-06T06:46:46.898Z 236.17 Sample.Periodic Raw Voltage Outlet V L1
2026-05-06T06:46:46.898Z 42 Sample.Periodic Raw Temperature Body Celsius
2026-05-06T06:47:46.896Z 10229652.5 Sample.Periodic Raw Energy.Active.Import.Register Outlet Wh L1
2026-05-06T06:47:46.896Z 28.04 Sample.Periodic Raw Current.Import Outlet A L1
2026-05-06T06:47:46.896Z 236.10 Sample.Periodic Raw Voltage Outlet V L1
2026-05-06T06:48:46.897Z 10229763.5 Sample.Periodic Raw Energy.Active.Import.Register Outlet Wh L1
2026-05-06T06:48:46.897Z 28.01 Sample.Periodic Raw Current.Import Outlet A L1
2026-05-06T06:48:46.897Z 236.47 Sample.Periodic Raw Voltage Outlet V L1
2026-05-06T06:49:46.897Z 10229873.2 Sample.Periodic Raw Energy.Active.Import.Register Outlet Wh L1
2026-05-06T06:50:46.897Z 10229984.4 Sample.Periodic Raw Energy.Active.Import.Register Outlet Wh L1
2026-05-06T06:50:46.897Z 237.73 Sample.Periodic Raw Voltage Outlet V L1
2026-05-06T06:50:46.897Z 43 Sample.Periodic Raw Temperature Body Celsius
2026-05-06T06:51:46.897Z 10230093.6 Sample.Periodic Raw Energy.Active.Import.Register Outlet Wh L1
2026-05-06T06:51:46.897Z 237.44 Sample.Periodic Raw Voltage Outlet V L1
2026-05-06T06:52:46.897Z 10230205.0 Sample.Periodic Raw Energy.Active.Import.Register Outlet Wh L1
2026-05-06T06:52:46.897Z 237.47 Sample.Periodic Raw Voltage Outlet V L1
2026-05-06T06:53:46.897Z 10230314.3 Sample.Periodic Raw Energy.Active.Import.Register Outlet Wh L1
2026-05-06T06:53:46.897Z 237.87 Sample.Periodic Raw Voltage Outlet V L1
2026-05-06T06:54:46.897Z 10230424.1 Sample.Periodic Raw Energy.Active.Import.Register Outlet Wh L1
2026-05-06T06:54:46.897Z 237.64 Sample.Periodic Raw Voltage Outlet V L1
2026-05-06T06:54:46.897Z 44 Sample.Periodic Raw Temperature Body Celsius
2026-05-06T06:55:46.897Z 10230535.3 Sample.Periodic Raw Energy.Active.Import.Register Outlet Wh L1
2026-05-06T06:55:46.897Z 28.00 Sample.Periodic Raw Current.Import Outlet A L1
2026-05-06T06:56:46.897Z 10230644.5 Sample.Periodic Raw Energy.Active.Import.Register Outlet Wh L1
2026-05-06T06:56:46.897Z 27.96 Sample.Periodic Raw Current.Import Outlet A L1
2026-05-06T06:56:46.897Z 236.69 Sample.Periodic Raw Voltage Outlet V L1
2026-05-06T06:57:46.896Z 10230754.3 Sample.Periodic Raw Energy.Active.Import.Register Outlet Wh L1
2026-05-06T06:57:46.896Z 27.97 Sample.Periodic Raw Current.Import Outlet A L1
2026-05-06T06:57:46.896Z 236.72 Sample.Periodic Raw Voltage Outlet V L1
2026-05-06T06:58:46.897Z 10230865.7 Sample.Periodic Raw Energy.Active.Import.Register Outlet Wh L1
2026-05-06T06:58:46.897Z 27.90 Sample.Periodic Raw Current.Import Outlet A L1
2026-05-06T06:58:46.897Z 237.01 Sample.Periodic Raw Voltage Outlet V L1
2026-05-06T06:59:46.897Z 10230975.1 Sample.Periodic Raw Energy.Active.Import.Register Outlet Wh L1
2026-05-06T06:59:46.897Z 237.28 Sample.Periodic Raw Voltage Outlet V L1
2026-05-06T07:00:46.896Z 10231084.4 Sample.Periodic Raw Energy.Active.Import.Register Outlet Wh L1
2026-05-06T07:00:46.896Z 237.02 Sample.Periodic Raw Voltage Outlet V L1
2026-05-06T07:00:46.896Z 45 Sample.Periodic Raw Temperature Body Celsius
2026-05-06T07:01:46.898Z 10231195.8 Sample.Periodic Raw Energy.Active.Import.Register Outlet Wh L1
2026-05-06T07:02:46.900Z 10231305.3 Sample.Periodic Raw Energy.Active.Import.Register Outlet Wh L1
2026-05-06T07:02:46.900Z 27.79 Sample.Periodic Raw Current.Import Outlet A L1
2026-05-06T07:02:46.900Z 238.03 Sample.Periodic Raw Voltage Outlet V L1
2026-05-06T07:03:46.897Z 10231414.8 Sample.Periodic Raw Energy.Active.Import.Register Outlet Wh L1
2026-05-06T07:03:46.897Z 237.79 Sample.Periodic Raw Voltage Outlet V L1
2026-05-06T07:04:46.897Z 10231526.0 Sample.Periodic Raw Energy.Active.Import.Register Outlet Wh L1
2026-05-06T07:04:46.897Z 27.76 Sample.Periodic Raw Current.Import Outlet A L1
2026-05-06T07:04:46.897Z 238.04 Sample.Periodic Raw Voltage Outlet V L1
2026-05-06T07:05:46.897Z 10231635.6 Sample.Periodic Raw Energy.Active.Import.Register Outlet Wh L1
2026-05-06T07:05:46.897Z 27.71 Sample.Periodic Raw Current.Import Outlet A L1
2026-05-06T07:05:46.897Z 238.56 Sample.Periodic Raw Voltage Outlet V L1
2026-05-06T07:06:46.896Z 10231745.2 Sample.Periodic Raw Energy.Active.Import.Register Outlet Wh L1
2026-05-06T07:06:46.896Z 27.69 Sample.Periodic Raw Current.Import Outlet A L1
2026-05-06T07:06:46.896Z 238.77 Sample.Periodic Raw Voltage Outlet V L1
2026-05-06T07:07:46.897Z 10231854.3 Sample.Periodic Raw Energy.Active.Import.Register Outlet Wh L1
2026-05-06T07:07:46.897Z 27.66 Sample.Periodic Raw Current.Import Outlet A L1
2026-05-06T07:07:46.897Z 238.90 Sample.Periodic Raw Voltage Outlet V L1
2026-05-06T07:07:46.897Z 46 Sample.Periodic Raw Temperature Body Celsius
2026-05-06T07:08:46.897Z 10231965.6 Sample.Periodic Raw Energy.Active.Import.Register Outlet Wh L1
2026-05-06T07:08:46.897Z 27.72 Sample.Periodic Raw Current.Import Outlet A L1
2026-05-06T07:08:46.897Z 238.57 Sample.Periodic Raw Voltage Outlet V L1
2026-05-06T07:09:46.897Z 10232075.3 Sample.Periodic Raw Energy.Active.Import.Register Outlet Wh L1
2026-05-06T07:09:46.897Z 27.74 Sample.Periodic Raw Current.Import Outlet A L1
2026-05-06T07:09:46.897Z 238.42 Sample.Periodic Raw Voltage Outlet V L1
2026-05-06T07:10:46.898Z 10232184.8 Sample.Periodic Raw Energy.Active.Import.Register Outlet Wh L1
2026-05-06T07:10:46.898Z 238.01 Sample.Periodic Raw Voltage Outlet V L1
2026-05-06T07:11:46.897Z 10232294.2 Sample.Periodic Raw Energy.Active.Import.Register Outlet Wh L1
2026-05-06T07:11:46.897Z 27.75 Sample.Periodic Raw Current.Import Outlet A L1
2026-05-06T07:11:46.897Z 238.25 Sample.Periodic Raw Voltage Outlet V L1
2026-05-06T07:12:46.896Z 10232405.6 Sample.Periodic Raw Energy.Active.Import.Register Outlet Wh L1
2026-05-06T07:12:46.896Z 237.77 Sample.Periodic Raw Voltage Outlet V L1
2026-05-06T07:13:46.897Z 10232514.8 Sample.Periodic Raw Energy.Active.Import.Register Outlet Wh L1
2026-05-06T07:13:46.897Z 236.76 Sample.Periodic Raw Voltage Outlet V L1
2026-05-06T07:14:46.896Z 10232624.5 Sample.Periodic Raw Energy.Active.Import.Register Outlet Wh L1
2026-05-06T07:14:46.896Z 237.25 Sample.Periodic Raw Voltage Outlet V L1
2026-05-06T07:15:46.897Z 10232735.8 Sample.Periodic Raw Energy.Active.Import.Register Outlet Wh L1
2026-05-06T07:15:46.897Z 47 Sample.Periodic Raw Temperature Body Celsius
2026-05-06T07:16:46.897Z 10232845.3 Sample.Periodic Raw Energy.Active.Import.Register Outlet Wh L1
2026-05-06T07:16:46.897Z 27.86 Sample.Periodic Raw Current.Import Outlet A L1
2026-05-06T07:16:46.897Z 237.30 Sample.Periodic Raw Voltage Outlet V L1
2026-05-06T07:17:46.897Z 10232954.7 Sample.Periodic Raw Energy.Active.Import.Register Outlet Wh L1
2026-05-06T07:17:46.897Z 237.46 Sample.Periodic Raw Voltage Outlet V L1
2026-05-06T07:18:46.896Z 10233064.3 Sample.Periodic Raw Energy.Active.Import.Register Outlet Wh L1
2026-05-06T07:19:46.897Z 10233175.6 Sample.Periodic Raw Energy.Active.Import.Register Outlet Wh L1
2026-05-06T07:19:46.897Z 237.61 Sample.Periodic Raw Voltage Outlet V L1
2026-05-06T07:20:46.897Z 10233285.0 Sample.Periodic Raw Energy.Active.Import.Register Outlet Wh L1
2026-05-06T07:20:46.897Z 237.80 Sample.Periodic Raw Voltage Outlet V L1
2026-05-06T07:21:46.897Z 10233394.6 Sample.Periodic Raw Energy.Active.Import.Register Outlet Wh L1
2026-05-06T07:21:46.897Z 236.84 Sample.Periodic Raw Voltage Outlet V L1
2026-05-06T07:22:46.897Z 10233505.9 Sample.Periodic Raw Energy.Active.Import.Register Outlet Wh L1
2026-05-06T07:22:46.897Z 236.71 Sample.Periodic Raw Voltage Outlet V L1
2026-05-06T07:23:46.896Z 10233615.4 Sample.Periodic Raw Energy.Active.Import.Register Outlet Wh L1
2026-05-06T07:23:46.896Z 236.91 Sample.Periodic Raw Voltage Outlet V L1
2026-05-06T07:24:46.897Z 10233724.7 Sample.Periodic Raw Energy.Active.Import.Register Outlet Wh L1
2026-05-06T07:24:46.897Z 237.55 Sample.Periodic Raw Voltage Outlet V L1
2026-05-06T07:25:46.897Z 10233834.3 Sample.Periodic Raw Energy.Active.Import.Register Outlet Wh L1
2026-05-06T07:26:46.896Z 10233945.6 Sample.Periodic Raw Energy.Active.Import.Register Outlet Wh L1
2026-05-06T07:26:46.896Z 237.63 Sample.Periodic Raw Voltage Outlet V L1
2026-05-06T07:26:46.896Z 48 Sample.Periodic Raw Temperature Body Celsius
2026-05-06T07:27:46.897Z 10234055.0 Sample.Periodic Raw Energy.Active.Import.Register Outlet Wh L1
2026-05-06T07:29:46.897Z 10234275.9 Sample.Periodic Raw Energy.Active.Import.Register Outlet Wh L1
2026-05-06T07:30:46.896Z 10234385.4 Sample.Periodic Raw Energy.Active.Import.Register Outlet Wh L1
2026-05-06T07:31:46.897Z 10234495.0 Sample.Periodic Raw Energy.Active.Import.Register Outlet Wh L1
2026-05-06T07:31:46.897Z 237.10 Sample.Periodic Raw Voltage Outlet V L1
2026-05-06T07:32:46.897Z 10234604.4 Sample.Periodic Raw Energy.Active.Import.Register Outlet Wh L1
2026-05-06T07:33:46.896Z 10234713.8 Sample.Periodic Raw Energy.Active.Import.Register Outlet Wh L1
2026-05-06T07:34:46.898Z 10234825.4 Sample.Periodic Raw Energy.Active.Import.Register Outlet Wh L1
2026-05-06T07:35:46.896Z 10234934.8 Sample.Periodic Raw Energy.Active.Import.Register Outlet Wh L1
2026-05-06T07:35:46.896Z 237.53 Sample.Periodic Raw Voltage Outlet V L1
2026-05-06T07:36:46.897Z 10235044.3 Sample.Periodic Raw Energy.Active.Import.Register Outlet Wh L1
2026-05-06T07:37:46.897Z 10235153.7 Sample.Periodic Raw Energy.Active.Import.Register Outlet Wh L1
2026-05-06T07:37:46.897Z 237.70 Sample.Periodic Raw Voltage Outlet V L1
2026-05-06T07:38:46.897Z 10235264.8 Sample.Periodic Raw Energy.Active.Import.Register Outlet Wh L1
2026-05-06T07:39:46.896Z 10235374.2 Sample.Periodic Raw Energy.Active.Import.Register Outlet Wh L1
2026-05-06T07:39:46.896Z 237.32 Sample.Periodic Raw Voltage Outlet V L1
2026-05-06T07:40:46.898Z 10235483.7 Sample.Periodic Raw Energy.Active.Import.Register Outlet Wh L1
2026-05-06T07:40:46.898Z 237.23 Sample.Periodic Raw Voltage Outlet V L1
2026-05-06T07:41:46.897Z 10235594.8 Sample.Periodic Raw Energy.Active.Import.Register Outlet Wh L1
2026-05-06T07:42:46.897Z 10235704.5 Sample.Periodic Raw Energy.Active.Import.Register Outlet Wh L1
2026-05-06T07:42:46.897Z 237.31 Sample.Periodic Raw Voltage Outlet V L1
2026-05-06T07:42:46.897Z 49 Sample.Periodic Raw Temperature Body Celsius
2026-05-06T07:43:46.897Z 10235814.1 Sample.Periodic Raw Energy.Active.Import.Register Outlet Wh L1
2026-05-06T07:43:46.897Z 237.05 Sample.Periodic Raw Voltage Outlet V L1
2026-05-06T07:44:46.896Z 10235923.4 Sample.Periodic Raw Energy.Active.Import.Register Outlet Wh L1
2026-05-06T07:45:46.897Z 10236034.3 Sample.Periodic Raw Energy.Active.Import.Register Outlet Wh L1
2026-05-06T07:45:46.897Z 237.21 Sample.Periodic Raw Voltage Outlet V L1
2026-05-06T07:46:46.897Z 10236143.5 Sample.Periodic Raw Energy.Active.Import.Register Outlet Wh L1
2026-05-06T07:46:46.897Z 237.14 Sample.Periodic Raw Voltage Outlet V L1
2026-05-06T07:47:46.897Z 10236254.4 Sample.Periodic Raw Energy.Active.Import.Register Outlet Wh L1
2026-05-06T07:48:46.897Z 10236363.7 Sample.Periodic Raw Energy.Active.Import.Register Outlet Wh L1
2026-05-06T07:48:46.897Z 237.40 Sample.Periodic Raw Voltage Outlet V L1
2026-05-06T07:49:46.897Z 10236473.0 Sample.Periodic Raw Energy.Active.Import.Register Outlet Wh L1
2026-05-06T07:50:46.896Z 10236584.1 Sample.Periodic Raw Energy.Active.Import.Register Outlet Wh L1
2026-05-06T07:51:46.897Z 10236693.1 Sample.Periodic Raw Energy.Active.Import.Register Outlet Wh L1
2026-05-06T07:52:46.897Z 10236802.6 Sample.Periodic Raw Energy.Active.Import.Register Outlet Wh L1
2026-05-06T07:53:46.896Z 10236913.9 Sample.Periodic Raw Energy.Active.Import.Register Outlet Wh L1
2026-05-06T07:53:46.896Z 237.13 Sample.Periodic Raw Voltage Outlet V L1
2026-05-06T07:54:46.897Z 10237023.0 Sample.Periodic Raw Energy.Active.Import.Register Outlet Wh L1
2026-05-06T07:55:46.897Z 10237132.3 Sample.Periodic Raw Energy.Active.Import.Register Outlet Wh L1
2026-05-06T07:56:46.897Z 10237242.0 Sample.Periodic Raw Energy.Active.Import.Register Outlet Wh L1
2026-05-06T07:57:46.896Z 10237352.9 Sample.Periodic Raw Energy.Active.Import.Register Outlet Wh L1
2026-05-06T07:58:46.896Z 10237462.2 Sample.Periodic Raw Energy.Active.Import.Register Outlet Wh L1
2026-05-06T07:58:46.896Z 236.92 Sample.Periodic Raw Voltage Outlet V L1
2026-05-06T07:59:46.897Z 10237572.9 Sample.Periodic Raw Energy.Active.Import.Register Outlet Wh L1
2026-05-06T08:00:46.897Z 10237682.2 Sample.Periodic Raw Energy.Active.Import.Register Outlet Wh L1
2026-05-06T08:00:46.897Z 237.22 Sample.Periodic Raw Voltage Outlet V L1
2026-05-06T08:01:46.897Z 10237791.2 Sample.Periodic Raw Energy.Active.Import.Register Outlet Wh L1
2026-05-06T08:02:46.897Z 10237902.3 Sample.Periodic Raw Energy.Active.Import.Register Outlet Wh L1
2026-05-06T08:02:46.897Z 237.29 Sample.Periodic Raw Voltage Outlet V L1
2026-05-06T08:03:46.896Z 10238011.8 Sample.Periodic Raw Energy.Active.Import.Register Outlet Wh L1
2026-05-06T08:04:46.897Z 10238121.2 Sample.Periodic Raw Energy.Active.Import.Register Outlet Wh L1
2026-05-06T08:05:46.897Z 10238230.5 Sample.Periodic Raw Energy.Active.Import.Register Outlet Wh L1
2026-05-06T08:05:46.897Z 237.17 Sample.Periodic Raw Voltage Outlet V L1
2026-05-06T08:06:46.896Z 10238341.7 Sample.Periodic Raw Energy.Active.Import.Register Outlet Wh L1
2026-05-06T08:07:46.897Z 10238450.8 Sample.Periodic Raw Energy.Active.Import.Register Outlet Wh L1
2026-05-06T08:08:46.897Z 10238559.9 Sample.Periodic Raw Energy.Active.Import.Register Outlet Wh L1
2026-05-06T08:08:46.897Z 237.54 Sample.Periodic Raw Voltage Outlet V L1
2026-05-06T08:09:46.896Z 10238670.6 Sample.Periodic Raw Energy.Active.Import.Register Outlet Wh L1
2026-05-06T08:10:46.897Z 10238779.4 Sample.Periodic Raw Energy.Active.Import.Register Outlet Wh L1
2026-05-06T08:11:46.897Z 10238889.0 Sample.Periodic Raw Energy.Active.Import.Register Outlet Wh L1
2026-05-06T08:11:46.897Z 27.73 Sample.Periodic Raw Current.Import Outlet A L1
2026-05-06T08:11:46.897Z 237.89 Sample.Periodic Raw Voltage Outlet V L1
2026-05-06T08:12:46.896Z 10238999.9 Sample.Periodic Raw Energy.Active.Import.Register Outlet Wh L1
2026-05-06T08:13:46.897Z 10239109.6 Sample.Periodic Raw Energy.Active.Import.Register Outlet Wh L1
2026-05-06T08:13:46.897Z 27.78 Sample.Periodic Raw Current.Import Outlet A L1
2026-05-06T08:14:46.897Z 10239218.8 Sample.Periodic Raw Energy.Active.Import.Register Outlet Wh L1
2026-05-06T08:14:46.897Z 237.60 Sample.Periodic Raw Voltage Outlet V L1
2026-05-06T08:15:46.897Z 10239329.8 Sample.Periodic Raw Energy.Active.Import.Register Outlet Wh L1
2026-05-06T08:15:46.897Z 237.67 Sample.Periodic Raw Voltage Outlet V L1
2026-05-06T08:15:46.897Z 50 Sample.Periodic Raw Temperature Body Celsius
2026-05-06T08:16:46.897Z 10239439.0 Sample.Periodic Raw Energy.Active.Import.Register Outlet Wh L1
2026-05-06T08:16:46.897Z 27.94 Sample.Periodic Raw Current.Import Outlet A L1
2026-05-06T08:16:46.897Z 235.98 Sample.Periodic Raw Voltage Outlet V L1
2026-05-06T08:17:46.897Z 10239548.0 Sample.Periodic Raw Energy.Active.Import.Register Outlet Wh L1
2026-05-06T08:17:46.897Z 235.66 Sample.Periodic Raw Voltage Outlet V L1
2026-05-06T08:18:46.896Z 10239659.2 Sample.Periodic Raw Energy.Active.Import.Register Outlet Wh L1
2026-05-06T08:18:46.896Z 237.42 Sample.Periodic Raw Voltage Outlet V L1
2026-05-06T08:19:46.897Z 10239768.3 Sample.Periodic Raw Energy.Active.Import.Register Outlet Wh L1
2026-05-06T08:19:46.897Z 237.66 Sample.Periodic Raw Voltage Outlet V L1
2026-05-06T08:20:46.896Z 10239877.4 Sample.Periodic Raw Energy.Active.Import.Register Outlet Wh L1
2026-05-06T08:21:46.897Z 10239988.1 Sample.Periodic Raw Energy.Active.Import.Register Outlet Wh L1
2026-05-06T08:22:46.897Z 10240097.3 Sample.Periodic Raw Energy.Active.Import.Register Outlet Wh L1
2026-05-06T08:22:46.897Z 237.37 Sample.Periodic Raw Voltage Outlet V L1
2026-05-06T08:23:46.897Z 10240206.6 Sample.Periodic Raw Energy.Active.Import.Register Outlet Wh L1
2026-05-06T08:24:46.897Z 10240316.0 Sample.Periodic Raw Energy.Active.Import.Register Outlet Wh L1
2026-05-06T08:25:46.897Z 10240426.9 Sample.Periodic Raw Energy.Active.Import.Register Outlet Wh L1
2026-05-06T08:26:46.897Z 10240536.2 Sample.Periodic Raw Energy.Active.Import.Register Outlet Wh L1
2026-05-06T08:27:46.897Z 10240645.4 Sample.Periodic Raw Energy.Active.Import.Register Outlet Wh L1
2026-05-06T08:27:46.897Z 236.57 Sample.Periodic Raw Voltage Outlet V L1
2026-05-06T08:28:46.897Z 10240756.3 Sample.Periodic Raw Energy.Active.Import.Register Outlet Wh L1
2026-05-06T08:28:46.897Z 236.96 Sample.Periodic Raw Voltage Outlet V L1
2026-05-06T08:29:46.896Z 10240865.6 Sample.Periodic Raw Energy.Active.Import.Register Outlet Wh L1
2026-05-06T08:29:46.896Z 236.98 Sample.Periodic Raw Voltage Outlet V L1
2026-05-06T08:30:46.896Z 10240974.8 Sample.Periodic Raw Energy.Active.Import.Register Outlet Wh L1
2026-05-06T08:30:46.896Z 237.08 Sample.Periodic Raw Voltage Outlet V L1
2026-05-06T08:31:46.896Z 10241085.4 Sample.Periodic Raw Energy.Active.Import.Register Outlet Wh L1
2026-05-06T08:31:46.896Z 237.06 Sample.Periodic Raw Voltage Outlet V L1
2026-05-06T08:32:46.897Z 10241194.7 Sample.Periodic Raw Energy.Active.Import.Register Outlet Wh L1
2026-05-06T08:32:46.897Z 236.93 Sample.Periodic Raw Voltage Outlet V L1
2026-05-06T08:33:46.897Z 10241303.9 Sample.Periodic Raw Energy.Active.Import.Register Outlet Wh L1
2026-05-06T08:33:46.897Z 235.54 Sample.Periodic Raw Voltage Outlet V L1
2026-05-06T08:34:46.897Z 10241413.1 Sample.Periodic Raw Energy.Active.Import.Register Outlet Wh L1
2026-05-06T08:34:46.897Z 235.70 Sample.Periodic Raw Voltage Outlet V L1
2026-05-06T08:35:46.897Z 10241524.2 Sample.Periodic Raw Energy.Active.Import.Register Outlet Wh L1
2026-05-06T08:35:46.897Z 235.42 Sample.Periodic Raw Voltage Outlet V L1
2026-05-06T08:36:46.897Z 10241633.5 Sample.Periodic Raw Energy.Active.Import.Register Outlet Wh L1
2026-05-06T08:36:46.897Z 236.44 Sample.Periodic Raw Voltage Outlet V L1
2026-05-06T08:37:46.897Z 10241742.6 Sample.Periodic Raw Energy.Active.Import.Register Outlet Wh L1
2026-05-06T08:37:46.897Z 236.50 Sample.Periodic Raw Voltage Outlet V L1
2026-05-06T08:38:46.896Z 10241853.3 Sample.Periodic Raw Energy.Active.Import.Register Outlet Wh L1
2026-05-06T08:38:46.896Z 236.04 Sample.Periodic Raw Voltage Outlet V L1
2026-05-06T08:39:46.897Z 10241962.7 Sample.Periodic Raw Energy.Active.Import.Register Outlet Wh L1
2026-05-06T08:40:46.896Z 10242071.9 Sample.Periodic Raw Energy.Active.Import.Register Outlet Wh L1
2026-05-06T08:40:46.896Z 236.29 Sample.Periodic Raw Voltage Outlet V L1
2026-05-06T08:41:46.898Z 10242181.0 Sample.Periodic Raw Energy.Active.Import.Register Outlet Wh L1
2026-05-06T08:42:46.897Z 10242291.8 Sample.Periodic Raw Energy.Active.Import.Register Outlet Wh L1
2026-05-06T08:42:46.897Z 236.52 Sample.Periodic Raw Voltage Outlet V L1
2026-05-06T08:43:46.896Z 10242400.8 Sample.Periodic Raw Energy.Active.Import.Register Outlet Wh L1
2026-05-06T08:44:46.897Z 10242509.9 Sample.Periodic Raw Energy.Active.Import.Register Outlet Wh L1
2026-05-06T08:44:46.897Z 236.66 Sample.Periodic Raw Voltage Outlet V L1
2026-05-06T08:45:46.896Z 10242620.6 Sample.Periodic Raw Energy.Active.Import.Register Outlet Wh L1
2026-05-06T08:46:46.897Z 10242729.5 Sample.Periodic Raw Energy.Active.Import.Register Outlet Wh L1
2026-05-06T08:47:46.896Z 10242838.9 Sample.Periodic Raw Energy.Active.Import.Register Outlet Wh L1
2026-05-06T08:48:46.896Z 10242949.9 Sample.Periodic Raw Energy.Active.Import.Register Outlet Wh L1
2026-05-06T08:49:46.897Z 10243058.9 Sample.Periodic Raw Energy.Active.Import.Register Outlet Wh L1
2026-05-06T08:49:46.897Z 237.07 Sample.Periodic Raw Voltage Outlet V L1
2026-05-06T08:50:46.898Z 10243168.2 Sample.Periodic Raw Energy.Active.Import.Register Outlet Wh L1
2026-05-06T08:50:46.898Z 236.97 Sample.Periodic Raw Voltage Outlet V L1
2026-05-06T08:51:46.896Z 10243277.2 Sample.Periodic Raw Energy.Active.Import.Register Outlet Wh L1
2026-05-06T08:51:46.896Z 236.79 Sample.Periodic Raw Voltage Outlet V L1
2026-05-06T08:52:46.897Z 10243388.3 Sample.Periodic Raw Energy.Active.Import.Register Outlet Wh L1
2026-05-06T08:52:46.897Z 236.80 Sample.Periodic Raw Voltage Outlet V L1
2026-05-06T08:53:46.898Z 10243497.3 Sample.Periodic Raw Energy.Active.Import.Register Outlet Wh L1
2026-05-06T08:53:46.898Z 236.59 Sample.Periodic Raw Voltage Outlet V L1
2026-05-06T08:54:46.896Z 10243606.3 Sample.Periodic Raw Energy.Active.Import.Register Outlet Wh L1
2026-05-06T08:54:46.896Z 236.62 Sample.Periodic Raw Voltage Outlet V L1
2026-05-06T08:55:46.896Z 10243717.4 Sample.Periodic Raw Energy.Active.Import.Register Outlet Wh L1
2026-05-06T08:55:46.896Z 236.81 Sample.Periodic Raw Voltage Outlet V L1
2026-05-06T08:56:46.897Z 10243826.4 Sample.Periodic Raw Energy.Active.Import.Register Outlet Wh L1
2026-05-06T08:57:46.896Z 10243935.3 Sample.Periodic Raw Energy.Active.Import.Register Outlet Wh L1
2026-05-06T08:57:46.896Z 236.85 Sample.Periodic Raw Voltage Outlet V L1
2026-05-06T08:58:46.897Z 10244046.0 Sample.Periodic Raw Energy.Active.Import.Register Outlet Wh L1
2026-05-06T08:58:46.897Z 236.88 Sample.Periodic Raw Voltage Outlet V L1
2026-05-06T08:59:46.897Z 10244154.8 Sample.Periodic Raw Energy.Active.Import.Register Outlet Wh L1
2026-05-06T09:00:46.897Z 10244265.4 Sample.Periodic Raw Energy.Active.Import.Register Outlet Wh L1
2026-05-06T09:01:46.897Z 10244374.6 Sample.Periodic Raw Energy.Active.Import.Register Outlet Wh L1
2026-05-06T09:02:46.897Z 10244483.3 Sample.Periodic Raw Energy.Active.Import.Register Outlet Wh L1
2026-05-06T09:02:46.897Z 236.37 Sample.Periodic Raw Voltage Outlet V L1
2026-05-06T09:03:46.897Z 10244594.2 Sample.Periodic Raw Energy.Active.Import.Register Outlet Wh L1
2026-05-06T09:03:46.897Z 27.93 Sample.Periodic Raw Current.Import Outlet A L1
2026-05-06T09:03:46.897Z 235.90 Sample.Periodic Raw Voltage Outlet V L1
2026-05-06T09:04:46.897Z 10244703.3 Sample.Periodic Raw Energy.Active.Import.Register Outlet Wh L1
2026-05-06T09:04:46.897Z 236.32 Sample.Periodic Raw Voltage Outlet V L1
2026-05-06T09:05:46.897Z 10244812.3 Sample.Periodic Raw Energy.Active.Import.Register Outlet Wh L1
2026-05-06T09:05:46.897Z 236.30 Sample.Periodic Raw Voltage Outlet V L1
2026-05-06T09:06:46.896Z 10244923.2 Sample.Periodic Raw Energy.Active.Import.Register Outlet Wh L1
2026-05-06T09:06:46.896Z 236.39 Sample.Periodic Raw Voltage Outlet V L1
2026-05-06T09:07:46.897Z 10245032.3 Sample.Periodic Raw Energy.Active.Import.Register Outlet Wh L1
2026-05-06T09:08:46.897Z 10245141.5 Sample.Periodic Raw Energy.Active.Import.Register Outlet Wh L1
2026-05-06T09:09:46.897Z 10245250.8 Sample.Periodic Raw Energy.Active.Import.Register Outlet Wh L1
2026-05-06T09:10:46.897Z 10245360.1 Sample.Periodic Raw Energy.Active.Import.Register Outlet Wh L1
2026-05-06T09:10:46.897Z 236.42 Sample.Periodic Raw Voltage Outlet V L1
2026-05-06T09:11:46.897Z 10245470.9 Sample.Periodic Raw Energy.Active.Import.Register Outlet Wh L1
2026-05-06T09:12:46.897Z 10245579.8 Sample.Periodic Raw Energy.Active.Import.Register Outlet Wh L1
2026-05-06T09:12:46.897Z 236.11 Sample.Periodic Raw Voltage Outlet V L1
2026-05-06T09:13:46.897Z 10245690.2 Sample.Periodic Raw Energy.Active.Import.Register Outlet Wh L1
2026-05-06T09:13:46.897Z 236.06 Sample.Periodic Raw Voltage Outlet V L1
2026-05-06T09:14:46.897Z 10245799.6 Sample.Periodic Raw Energy.Active.Import.Register Outlet Wh L1
2026-05-06T09:15:46.897Z 10245909.0 Sample.Periodic Raw Energy.Active.Import.Register Outlet Wh L1
2026-05-06T09:15:46.897Z 235.99 Sample.Periodic Raw Voltage Outlet V L1
2026-05-06T09:16:46.897Z 10246017.9 Sample.Periodic Raw Energy.Active.Import.Register Outlet Wh L1
2026-05-06T09:16:46.897Z 235.95 Sample.Periodic Raw Voltage Outlet V L1
2026-05-06T09:17:46.897Z 10246129.1 Sample.Periodic Raw Energy.Active.Import.Register Outlet Wh L1
2026-05-06T09:17:46.897Z 27.99 Sample.Periodic Raw Current.Import Outlet A L1
2026-05-06T09:17:46.897Z 235.48 Sample.Periodic Raw Voltage Outlet V L1
2026-05-06T09:18:46.897Z 10246238.0 Sample.Periodic Raw Energy.Active.Import.Register Outlet Wh L1
2026-05-06T09:19:46.897Z 10246346.8 Sample.Periodic Raw Energy.Active.Import.Register Outlet Wh L1
2026-05-06T09:19:46.897Z 237.38 Sample.Periodic Raw Voltage Outlet V L1
2026-05-06T09:20:46.896Z 10246457.2 Sample.Periodic Raw Energy.Active.Import.Register Outlet Wh L1
2026-05-06T09:21:46.897Z 10246566.1 Sample.Periodic Raw Energy.Active.Import.Register Outlet Wh L1
2026-05-06T09:22:46.897Z 10246675.2 Sample.Periodic Raw Energy.Active.Import.Register Outlet Wh L1
2026-05-06T09:23:46.897Z 10246786.2 Sample.Periodic Raw Energy.Active.Import.Register Outlet Wh L1
2026-05-06T09:23:46.897Z 237.65 Sample.Periodic Raw Voltage Outlet V L1
2026-05-06T09:24:46.896Z 10246895.0 Sample.Periodic Raw Energy.Active.Import.Register Outlet Wh L1
2026-05-06T09:24:46.896Z 237.56 Sample.Periodic Raw Voltage Outlet V L1
2026-05-06T09:25:46.896Z 10247004.0 Sample.Periodic Raw Energy.Active.Import.Register Outlet Wh L1
2026-05-06T09:25:46.896Z 237.27 Sample.Periodic Raw Voltage Outlet V L1
2026-05-06T09:26:46.896Z 10247115.0 Sample.Periodic Raw Energy.Active.Import.Register Outlet Wh L1
2026-05-06T09:27:46.897Z 10247223.8 Sample.Periodic Raw Energy.Active.Import.Register Outlet Wh L1
2026-05-06T09:27:46.897Z 27.70 Sample.Periodic Raw Current.Import Outlet A L1
2026-05-06T09:28:46.897Z 10247333.0 Sample.Periodic Raw Energy.Active.Import.Register Outlet Wh L1
2026-05-06T09:28:46.897Z 237.18 Sample.Periodic Raw Voltage Outlet V L1
2026-05-06T09:29:46.896Z 10247443.8 Sample.Periodic Raw Energy.Active.Import.Register Outlet Wh L1
2026-05-06T09:29:46.896Z 236.70 Sample.Periodic Raw Voltage Outlet V L1
2026-05-06T09:30:46.897Z 10247552.6 Sample.Periodic Raw Energy.Active.Import.Register Outlet Wh L1
2026-05-06T09:30:46.897Z 237.00 Sample.Periodic Raw Voltage Outlet V L1
2026-05-06T09:31:46.897Z 10247661.7 Sample.Periodic Raw Energy.Active.Import.Register Outlet Wh L1
2026-05-06T09:32:46.897Z 10247770.7 Sample.Periodic Raw Energy.Active.Import.Register Outlet Wh L1
2026-05-06T09:32:46.897Z 236.94 Sample.Periodic Raw Voltage Outlet V L1
2026-05-06T09:33:46.897Z 10247881.7 Sample.Periodic Raw Energy.Active.Import.Register Outlet Wh L1
2026-05-06T09:34:46.897Z 10247990.8 Sample.Periodic Raw Energy.Active.Import.Register Outlet Wh L1
2026-05-06T09:34:46.897Z 237.26 Sample.Periodic Raw Voltage Outlet V L1
2026-05-06T09:35:46.897Z 10248099.4 Sample.Periodic Raw Energy.Active.Import.Register Outlet Wh L1
2026-05-06T09:36:46.897Z 10248210.0 Sample.Periodic Raw Energy.Active.Import.Register Outlet Wh L1
2026-05-06T09:37:46.897Z 10248318.8 Sample.Periodic Raw Energy.Active.Import.Register Outlet Wh L1
2026-05-06T09:38:46.897Z 10248429.0 Sample.Periodic Raw Energy.Active.Import.Register Outlet Wh L1
2026-05-06T09:39:46.897Z 10248537.7 Sample.Periodic Raw Energy.Active.Import.Register Outlet Wh L1
2026-05-06T09:39:46.897Z 237.19 Sample.Periodic Raw Voltage Outlet V L1
2026-05-06T09:40:46.896Z 10248646.8 Sample.Periodic Raw Energy.Active.Import.Register Outlet Wh L1
2026-05-06T09:41:46.897Z 10248757.6 Sample.Periodic Raw Energy.Active.Import.Register Outlet Wh L1
2026-05-06T09:42:46.897Z 10248866.9 Sample.Periodic Raw Energy.Active.Import.Register Outlet Wh L1
2026-05-06T09:43:46.897Z 10248975.9 Sample.Periodic Raw Energy.Active.Import.Register Outlet Wh L1
2026-05-06T09:43:46.897Z 237.09 Sample.Periodic Raw Voltage Outlet V L1
2026-05-06T09:44:46.897Z 10249084.8 Sample.Periodic Raw Energy.Active.Import.Register Outlet Wh L1
2026-05-06T09:45:46.897Z 10249195.5 Sample.Periodic Raw Energy.Active.Import.Register Outlet Wh L1
2026-05-06T09:46:46.896Z 10249304.1 Sample.Periodic Raw Energy.Active.Import.Register Outlet Wh L1
2026-05-06T09:47:46.897Z 10249412.9 Sample.Periodic Raw Energy.Active.Import.Register Outlet Wh L1
2026-05-06T09:48:46.897Z 10249523.6 Sample.Periodic Raw Energy.Active.Import.Register Outlet Wh L1
2026-05-06T09:48:46.897Z 235.94 Sample.Periodic Raw Voltage Outlet V L1
2026-05-06T09:49:46.897Z 10249633.0 Sample.Periodic Raw Energy.Active.Import.Register Outlet Wh L1
2026-05-06T09:50:46.897Z 10249741.9 Sample.Periodic Raw Energy.Active.Import.Register Outlet Wh L1
2026-05-06T09:50:46.897Z 236.16 Sample.Periodic Raw Voltage Outlet V L1
2026-05-06T09:51:46.897Z 10249851.4 Sample.Periodic Raw Energy.Active.Import.Register Outlet Wh L1
2026-05-06T09:51:46.897Z 235.38 Sample.Periodic Raw Voltage Outlet V L1
2026-05-06T09:52:46.897Z 10249962.4 Sample.Periodic Raw Energy.Active.Import.Register Outlet Wh L1
2026-05-06T09:52:46.897Z 236.26 Sample.Periodic Raw Voltage Outlet V L1
2026-05-06T09:53:46.897Z 10250071.5 Sample.Periodic Raw Energy.Active.Import.Register Outlet Wh L1
2026-05-06T09:53:46.897Z 236.95 Sample.Periodic Raw Voltage Outlet V L1
2026-05-06T09:54:46.897Z 10250182.2 Sample.Periodic Raw Energy.Active.Import.Register Outlet Wh L1
2026-05-06T09:55:46.897Z 10250291.2 Sample.Periodic Raw Energy.Active.Import.Register Outlet Wh L1
2026-05-06T09:56:46.897Z 10250399.9 Sample.Periodic Raw Energy.Active.Import.Register Outlet Wh L1
2026-05-06T09:56:46.897Z 237.33 Sample.Periodic Raw Voltage Outlet V L1
2026-05-06T09:57:46.897Z 10250510.5 Sample.Periodic Raw Energy.Active.Import.Register Outlet Wh L1
2026-05-06T09:58:46.896Z 10250619.3 Sample.Periodic Raw Energy.Active.Import.Register Outlet Wh L1
2026-05-06T09:59:46.896Z 10250728.6 Sample.Periodic Raw Energy.Active.Import.Register Outlet Wh L1
2026-05-06T09:59:46.896Z 237.57 Sample.Periodic Raw Voltage Outlet V L1
2026-05-06T10:00:46.897Z 10250839.5 Sample.Periodic Raw Energy.Active.Import.Register Outlet Wh L1
2026-05-06T10:00:46.897Z 237.51 Sample.Periodic Raw Voltage Outlet V L1
2026-05-06T10:01:46.897Z 10250948.3 Sample.Periodic Raw Energy.Active.Import.Register Outlet Wh L1
2026-05-06T10:02:46.897Z 10251057.5 Sample.Periodic Raw Energy.Active.Import.Register Outlet Wh L1
2026-05-06T10:03:46.896Z 10251168.4 Sample.Periodic Raw Energy.Active.Import.Register Outlet Wh L1
2026-05-06T10:03:46.896Z 27.67 Sample.Periodic Raw Current.Import Outlet A L1
2026-05-06T10:04:46.897Z 10251277.5 Sample.Periodic Raw Energy.Active.Import.Register Outlet Wh L1
2026-05-06T10:05:46.896Z 10251386.5 Sample.Periodic Raw Energy.Active.Import.Register Outlet Wh L1
2026-05-06T10:05:46.896Z 237.16 Sample.Periodic Raw Voltage Outlet V L1
2026-05-06T10:06:46.896Z 10251495.4 Sample.Periodic Raw Energy.Active.Import.Register Outlet Wh L1
2026-05-06T10:07:46.897Z 10251606.3 Sample.Periodic Raw Energy.Active.Import.Register Outlet Wh L1
2026-05-06T10:08:46.897Z 10251715.6 Sample.Periodic Raw Energy.Active.Import.Register Outlet Wh L1
2026-05-06T10:09:46.896Z 10251824.5 Sample.Periodic Raw Energy.Active.Import.Register Outlet Wh L1
2026-05-06T10:10:46.897Z 10251935.3 Sample.Periodic Raw Energy.Active.Import.Register Outlet Wh L1
2026-05-06T10:10:46.897Z 237.43 Sample.Periodic Raw Voltage Outlet V L1
2026-05-06T10:11:46.897Z 10252044.9 Sample.Periodic Raw Energy.Active.Import.Register Outlet Wh L1
2026-05-06T10:12:46.897Z 10252154.0 Sample.Periodic Raw Energy.Active.Import.Register Outlet Wh L1
2026-05-06T10:13:46.897Z 10252263.2 Sample.Periodic Raw Energy.Active.Import.Register Outlet Wh L1
2026-05-06T10:14:46.897Z 10252372.2 Sample.Periodic Raw Energy.Active.Import.Register Outlet Wh L1
2026-05-06T10:15:46.897Z 10252481.2 Sample.Periodic Raw Energy.Active.Import.Register Outlet Wh L1
2026-05-06T10:16:46.897Z 10252591.8 Sample.Periodic Raw Energy.Active.Import.Register Outlet Wh L1
2026-05-06T10:17:46.896Z 10252700.6 Sample.Periodic Raw Energy.Active.Import.Register Outlet Wh L1
2026-05-06T10:18:46.896Z 10252809.6 Sample.Periodic Raw Energy.Active.Import.Register Outlet Wh L1
2026-05-06T10:19:46.896Z 10252920.2 Sample.Periodic Raw Energy.Active.Import.Register Outlet Wh L1
2026-05-06T10:20:46.896Z 10253029.2 Sample.Periodic Raw Energy.Active.Import.Register Outlet Wh L1
2026-05-06T10:21:46.896Z 10253138.6 Sample.Periodic Raw Energy.Active.Import.Register Outlet Wh L1
2026-05-06T10:22:46.896Z 10253247.9 Sample.Periodic Raw Energy.Active.Import.Register Outlet Wh L1
2026-05-06T10:23:46.897Z 10253358.4 Sample.Periodic Raw Energy.Active.Import.Register Outlet Wh L1
2026-05-06T10:24:46.897Z 10253466.8 Sample.Periodic Raw Energy.Active.Import.Register Outlet Wh L1
2026-05-06T10:24:46.897Z 237.62 Sample.Periodic Raw Voltage Outlet V L1
2026-05-06T10:25:46.897Z 10253577.7 Sample.Periodic Raw Energy.Active.Import.Register Outlet Wh L1
2026-05-06T10:25:46.897Z 237.74 Sample.Periodic Raw Voltage Outlet V L1
2026-05-06T10:26:46.898Z 10253686.4 Sample.Periodic Raw Energy.Active.Import.Register Outlet Wh L1
2026-05-06T10:27:46.897Z 10253795.0 Sample.Periodic Raw Energy.Active.Import.Register Outlet Wh L1
2026-05-06T10:27:46.897Z 237.15 Sample.Periodic Raw Voltage Outlet V L1
2026-05-06T10:28:46.897Z 10253905.7 Sample.Periodic Raw Energy.Active.Import.Register Outlet Wh L1
2026-05-06T10:28:46.897Z 237.36 Sample.Periodic Raw Voltage Outlet V L1
2026-05-06T10:29:46.897Z 10254014.7 Sample.Periodic Raw Energy.Active.Import.Register Outlet Wh L1
2026-05-06T10:30:46.896Z 10254119.4 Sample.Periodic Raw Energy.Active.Import.Register Outlet Wh L1
2026-05-06T10:30:46.896Z 25.76 Sample.Periodic Raw Current.Import Outlet A L1
2026-05-06T10:31:46.897Z 10254220.2 Sample.Periodic Raw Energy.Active.Import.Register Outlet Wh L1
2026-05-06T10:31:46.897Z 24.31 Sample.Periodic Raw Current.Import Outlet A L1
2026-05-06T10:31:46.897Z 238.38 Sample.Periodic Raw Voltage Outlet V L1
2026-05-06T10:32:46.898Z 10254312.5 Sample.Periodic Raw Energy.Active.Import.Register Outlet Wh L1
2026-05-06T10:32:46.898Z 22.89 Sample.Periodic Raw Current.Import Outlet A L1
2026-05-06T10:33:46.896Z 10254397.9 Sample.Periodic Raw Energy.Active.Import.Register Outlet Wh L1
2026-05-06T10:33:46.896Z 21.01 Sample.Periodic Raw Current.Import Outlet A L1
2026-05-06T10:33:46.896Z 238.65 Sample.Periodic Raw Voltage Outlet V L1
2026-05-06T10:34:46.897Z 10254478.0 Sample.Periodic Raw Energy.Active.Import.Register Outlet Wh L1
2026-05-06T10:34:46.897Z 19.14 Sample.Periodic Raw Current.Import Outlet A L1
2026-05-06T10:34:46.897Z 238.75 Sample.Periodic Raw Voltage Outlet V L1
2026-05-06T10:35:46.896Z 10254552.0 Sample.Periodic Raw Energy.Active.Import.Register Outlet Wh L1
2026-05-06T10:35:46.896Z 18.27 Sample.Periodic Raw Current.Import Outlet A L1
2026-05-06T10:35:46.896Z 238.33 Sample.Periodic Raw Voltage Outlet V L1
2026-05-06T10:36:46.896Z 10254621.4 Sample.Periodic Raw Energy.Active.Import.Register Outlet Wh L1
2026-05-06T10:36:46.896Z 17.25 Sample.Periodic Raw Current.Import Outlet A L1
2026-05-06T10:36:46.896Z 238.69 Sample.Periodic Raw Voltage Outlet V L1
2026-05-06T10:37:46.897Z 10254686.9 Sample.Periodic Raw Energy.Active.Import.Register Outlet Wh L1
2026-05-06T10:37:46.897Z 15.92 Sample.Periodic Raw Current.Import Outlet A L1
2026-05-06T10:37:46.897Z 239.25 Sample.Periodic Raw Voltage Outlet V L1
2026-05-06T10:38:46.896Z 10254748.4 Sample.Periodic Raw Energy.Active.Import.Register Outlet Wh L1
2026-05-06T10:38:46.896Z 15.39 Sample.Periodic Raw Current.Import Outlet A L1
2026-05-06T10:38:46.896Z 239.32 Sample.Periodic Raw Voltage Outlet V L1
2026-05-06T10:39:46.897Z 10254807.4 Sample.Periodic Raw Energy.Active.Import.Register Outlet Wh L1
2026-05-06T10:39:46.897Z 14.08 Sample.Periodic Raw Current.Import Outlet A L1
2026-05-06T10:39:46.897Z 239.70 Sample.Periodic Raw Voltage Outlet V L1
2026-05-06T10:40:46.897Z 10254862.3 Sample.Periodic Raw Energy.Active.Import.Register Outlet Wh L1
2026-05-06T10:40:46.897Z 13.63 Sample.Periodic Raw Current.Import Outlet A L1
2026-05-06T10:41:46.896Z 10254914.4 Sample.Periodic Raw Energy.Active.Import.Register Outlet Wh L1
2026-05-06T10:41:46.896Z 12.79 Sample.Periodic Raw Current.Import Outlet A L1
2026-05-06T10:42:46.897Z 10254964.9 Sample.Periodic Raw Energy.Active.Import.Register Outlet Wh L1
2026-05-06T10:42:46.897Z 12.33 Sample.Periodic Raw Current.Import Outlet A L1
2026-05-06T10:42:46.897Z 238.32 Sample.Periodic Raw Voltage Outlet V L1
2026-05-06T10:43:46.897Z 10255011.9 Sample.Periodic Raw Energy.Active.Import.Register Outlet Wh L1
2026-05-06T10:43:46.897Z 11.88 Sample.Periodic Raw Current.Import Outlet A L1
2026-05-06T10:43:46.897Z 238.05 Sample.Periodic Raw Voltage Outlet V L1
2026-05-06T10:44:46.897Z 10255056.3 Sample.Periodic Raw Energy.Active.Import.Register Outlet Wh L1
2026-05-06T10:45:46.897Z 10255099.1 Sample.Periodic Raw Energy.Active.Import.Register Outlet Wh L1
2026-05-06T10:45:46.897Z 10.47 Sample.Periodic Raw Current.Import Outlet A L1
2026-05-06T10:45:46.897Z 239.67 Sample.Periodic Raw Voltage Outlet V L1
2026-05-06T10:46:46.896Z 10255139.6 Sample.Periodic Raw Energy.Active.Import.Register Outlet Wh L1
2026-05-06T10:46:46.896Z 9.65 Sample.Periodic Raw Current.Import Outlet A L1
2026-05-06T10:46:46.896Z 238.40 Sample.Periodic Raw Voltage Outlet V L1
2026-05-06T10:47:46.897Z 10255178.4 Sample.Periodic Raw Energy.Active.Import.Register Outlet Wh L1
2026-05-06T10:47:46.897Z 9.21 Sample.Periodic Raw Current.Import Outlet A L1
2026-05-06T10:48:46.897Z 10255215.1 Sample.Periodic Raw Energy.Active.Import.Register Outlet Wh L1
2026-05-06T10:49:46.897Z 10255250.1 Sample.Periodic Raw Energy.Active.Import.Register Outlet Wh L1
2026-05-06T10:49:46.897Z 8.23 Sample.Periodic Raw Current.Import Outlet A L1
2026-05-06T10:49:46.897Z 240.42 Sample.Periodic Raw Voltage Outlet V L1
2026-05-06T10:50:46.897Z 10255283.6 Sample.Periodic Raw Energy.Active.Import.Register Outlet Wh L1
2026-05-06T10:50:46.897Z 8.68 Sample.Periodic Raw Current.Import Outlet A L1
2026-05-06T10:50:46.897Z 240.36 Sample.Periodic Raw Voltage Outlet V L1
2026-05-06T10:51:46.897Z 10255315.9 Sample.Periodic Raw Energy.Active.Import.Register Outlet Wh L1
2026-05-06T10:51:46.897Z 8.24 Sample.Periodic Raw Current.Import Outlet A L1
2026-05-06T10:51:46.897Z 240.27 Sample.Periodic Raw Voltage Outlet V L1
2026-05-06T10:52:46.896Z 10255346.8 Sample.Periodic Raw Energy.Active.Import.Register Outlet Wh L1
2026-05-06T10:52:46.896Z 7.37 Sample.Periodic Raw Current.Import Outlet A L1
2026-05-06T10:53:46.898Z 10255376.7 Sample.Periodic Raw Energy.Active.Import.Register Outlet Wh L1
2026-05-06T10:53:46.898Z 7.33 Sample.Periodic Raw Current.Import Outlet A L1
2026-05-06T10:53:46.898Z 240.60 Sample.Periodic Raw Voltage Outlet V L1
2026-05-06T10:54:46.897Z 10255404.8 Sample.Periodic Raw Energy.Active.Import.Register Outlet Wh L1
2026-05-06T10:54:46.897Z 7.03 Sample.Periodic Raw Current.Import Outlet A L1
2026-05-06T10:54:46.897Z 240.43 Sample.Periodic Raw Voltage Outlet V L1
2026-05-06T10:55:46.897Z 10255431.9 Sample.Periodic Raw Energy.Active.Import.Register Outlet Wh L1
2026-05-06T10:55:46.897Z 6.51 Sample.Periodic Raw Current.Import Outlet A L1
2026-05-06T10:56:46.896Z 10255458.0 Sample.Periodic Raw Energy.Active.Import.Register Outlet Wh L1
2026-05-06T10:56:46.896Z 240.31 Sample.Periodic Raw Voltage Outlet V L1
2026-05-06T10:57:46.897Z 10255483.2 Sample.Periodic Raw Energy.Active.Import.Register Outlet Wh L1
2026-05-06T10:57:46.897Z 240.34 Sample.Periodic Raw Voltage Outlet V L1
2026-05-06T10:58:46.897Z 10255507.1 Sample.Periodic Raw Energy.Active.Import.Register Outlet Wh L1
2026-05-06T10:58:46.897Z 6.06 Sample.Periodic Raw Current.Import Outlet A L1
2026-05-06T10:58:46.897Z 240.15 Sample.Periodic Raw Voltage Outlet V L1
2026-05-06T10:59:46.897Z 10255530.0 Sample.Periodic Raw Energy.Active.Import.Register Outlet Wh L1
2026-05-06T10:59:46.897Z 5.62 Sample.Periodic Raw Current.Import Outlet A L1
2026-05-06T10:59:46.897Z 240.46 Sample.Periodic Raw Voltage Outlet V L1
2026-05-06T11:00:46.897Z 10255552.2 Sample.Periodic Raw Energy.Active.Import.Register Outlet Wh L1
2026-05-06T11:00:46.897Z 5.63 Sample.Periodic Raw Current.Import Outlet A L1
2026-05-06T11:00:46.897Z 239.92 Sample.Periodic Raw Voltage Outlet V L1
2026-05-06T11:01:46.896Z 10255574.2 Sample.Periodic Raw Energy.Active.Import.Register Outlet Wh L1
2026-05-06T11:01:46.896Z 5.20 Sample.Periodic Raw Current.Import Outlet A L1
2026-05-06T11:01:46.896Z 239.20 Sample.Periodic Raw Voltage Outlet V L1
2026-05-06T11:02:46.897Z 10255595.0 Sample.Periodic Raw Energy.Active.Import.Register Outlet Wh L1
2026-05-06T11:02:46.897Z 5.19 Sample.Periodic Raw Current.Import Outlet A L1
2026-05-06T11:02:46.897Z 239.64 Sample.Periodic Raw Voltage Outlet V L1
2026-05-06T11:03:46.897Z 10255614.8 Sample.Periodic Raw Energy.Active.Import.Register Outlet Wh L1
2026-05-06T11:03:46.897Z 5.64 Sample.Periodic Raw Current.Import Outlet A L1
2026-05-06T11:03:46.897Z 239.39 Sample.Periodic Raw Voltage Outlet V L1
2026-05-06T11:04:46.897Z 10255634.6 Sample.Periodic Raw Energy.Active.Import.Register Outlet Wh L1
2026-05-06T11:04:46.897Z 239.41 Sample.Periodic Raw Voltage Outlet V L1
2026-05-06T11:05:46.897Z 10255653.8 Sample.Periodic Raw Energy.Active.Import.Register Outlet Wh L1
2026-05-06T11:05:46.897Z 4.78 Sample.Periodic Raw Current.Import Outlet A L1
2026-05-06T11:06:46.897Z 10255672.1 Sample.Periodic Raw Energy.Active.Import.Register Outlet Wh L1
2026-05-06T11:06:46.897Z 239.33 Sample.Periodic Raw Voltage Outlet V L1
2026-05-06T11:07:46.897Z 10255689.9 Sample.Periodic Raw Energy.Active.Import.Register Outlet Wh L1
2026-05-06T11:07:46.897Z 4.35 Sample.Periodic Raw Current.Import Outlet A L1
2026-05-06T11:07:46.897Z 239.47 Sample.Periodic Raw Voltage Outlet V L1
2026-05-06T11:08:46.897Z 10255707.0 Sample.Periodic Raw Energy.Active.Import.Register Outlet Wh L1
2026-05-06T11:08:46.897Z 4.77 Sample.Periodic Raw Current.Import Outlet A L1
2026-05-06T11:08:46.897Z 239.60 Sample.Periodic Raw Voltage Outlet V L1
2026-05-06T11:09:46.897Z 10255723.6 Sample.Periodic Raw Energy.Active.Import.Register Outlet Wh L1
2026-05-06T11:09:46.897Z 4.27 Sample.Periodic Raw Current.Import Outlet A L1
2026-05-06T11:09:46.897Z 239.76 Sample.Periodic Raw Voltage Outlet V L1
2026-05-06T11:10:46.896Z 10255739.0 Sample.Periodic Raw Energy.Active.Import.Register Outlet Wh L1
2026-05-06T11:10:46.896Z 3.70 Sample.Periodic Raw Current.Import Outlet A L1
2026-05-06T11:10:46.896Z 239.82 Sample.Periodic Raw Voltage Outlet V L1
2026-05-06T11:11:46.896Z 10255754.5 Sample.Periodic Raw Energy.Active.Import.Register Outlet Wh L1
2026-05-06T11:11:46.896Z 3.94 Sample.Periodic Raw Current.Import Outlet A L1
2026-05-06T11:11:46.896Z 239.29 Sample.Periodic Raw Voltage Outlet V L1
2026-05-06T11:12:46.897Z 10255769.8 Sample.Periodic Raw Energy.Active.Import.Register Outlet Wh L1
2026-05-06T11:12:46.897Z 3.93 Sample.Periodic Raw Current.Import Outlet A L1
2026-05-06T11:12:46.897Z 239.90 Sample.Periodic Raw Voltage Outlet V L1
2026-05-06T11:13:46.897Z 10255784.4 Sample.Periodic Raw Energy.Active.Import.Register Outlet Wh L1
2026-05-06T11:13:46.897Z 239.58 Sample.Periodic Raw Voltage Outlet V L1
2026-05-06T11:14:46.896Z 10255798.8 Sample.Periodic Raw Energy.Active.Import.Register Outlet Wh L1
2026-05-06T11:14:46.896Z 3.50 Sample.Periodic Raw Current.Import Outlet A L1
2026-05-06T11:14:46.896Z 241.27 Sample.Periodic Raw Voltage Outlet V L1
2026-05-06T11:15:46.897Z 10255812.9 Sample.Periodic Raw Energy.Active.Import.Register Outlet Wh L1
2026-05-06T11:15:46.897Z 241.45 Sample.Periodic Raw Voltage Outlet V L1
2026-05-06T11:16:46.896Z 10255826.1 Sample.Periodic Raw Energy.Active.Import.Register Outlet Wh L1
2026-05-06T11:17:46.897Z 10255839.5 Sample.Periodic Raw Energy.Active.Import.Register Outlet Wh L1
2026-05-06T11:17:46.897Z 241.59 Sample.Periodic Raw Voltage Outlet V L1
2026-05-06T11:18:46.897Z 10255852.4 Sample.Periodic Raw Energy.Active.Import.Register Outlet Wh L1
2026-05-06T11:18:46.897Z 3.10 Sample.Periodic Raw Current.Import Outlet A L1
2026-05-06T11:18:46.897Z 241.70 Sample.Periodic Raw Voltage Outlet V L1
2026-05-06T11:19:46.897Z 10255864.9 Sample.Periodic Raw Energy.Active.Import.Register Outlet Wh L1
2026-05-06T11:19:46.897Z 3.09 Sample.Periodic Raw Current.Import Outlet A L1
2026-05-06T11:19:46.897Z 241.84 Sample.Periodic Raw Voltage Outlet V L1
2026-05-06T11:20:46.897Z 10255877.5 Sample.Periodic Raw Energy.Active.Import.Register Outlet Wh L1
2026-05-06T11:20:46.897Z 3.49 Sample.Periodic Raw Current.Import Outlet A L1
2026-05-06T11:20:46.897Z 241.83 Sample.Periodic Raw Voltage Outlet V L1
2026-05-06T11:21:46.897Z 10255889.7 Sample.Periodic Raw Energy.Active.Import.Register Outlet Wh L1
2026-05-06T11:21:46.897Z 240.78 Sample.Periodic Raw Voltage Outlet V L1
2026-05-06T11:22:46.897Z 10255901.6 Sample.Periodic Raw Energy.Active.Import.Register Outlet Wh L1
2026-05-06T11:22:46.897Z 2.69 Sample.Periodic Raw Current.Import Outlet A L1
2026-05-06T11:22:46.897Z 240.45 Sample.Periodic Raw Voltage Outlet V L1
2026-05-06T11:23:46.897Z 10255913.1 Sample.Periodic Raw Energy.Active.Import.Register Outlet Wh L1
2026-05-06T11:23:46.897Z 3.04 Sample.Periodic Raw Current.Import Outlet A L1
2026-05-06T11:23:46.897Z 241.74 Sample.Periodic Raw Voltage Outlet V L1
2026-05-06T11:24:46.897Z 10255924.2 Sample.Periodic Raw Energy.Active.Import.Register Outlet Wh L1
2026-05-06T11:24:46.897Z 2.68 Sample.Periodic Raw Current.Import Outlet A L1
2026-05-06T11:24:46.897Z 241.56 Sample.Periodic Raw Voltage Outlet V L1
2026-05-06T11:25:46.897Z 10255935.3 Sample.Periodic Raw Energy.Active.Import.Register Outlet Wh L1
2026-05-06T11:25:46.897Z 241.54 Sample.Periodic Raw Voltage Outlet V L1
2026-05-06T11:26:46.897Z 10255945.7 Sample.Periodic Raw Energy.Active.Import.Register Outlet Wh L1
2026-05-06T11:27:46.896Z 10255956.1 Sample.Periodic Raw Energy.Active.Import.Register Outlet Wh L1
2026-05-06T11:27:46.896Z 241.78 Sample.Periodic Raw Voltage Outlet V L1
2026-05-06T11:28:46.896Z 10255961.5 Sample.Periodic Raw Energy.Active.Import.Register Outlet Wh L1
2026-05-06T11:29:46.897Z 0.35 Sample.Periodic Raw Current.Import Outlet A L1
2026-05-06T11:29:46.897Z 242.46 Sample.Periodic Raw Voltage Outlet V L1
2026-05-06T11:31:46.897Z 242.30 Sample.Periodic Raw Voltage Outlet V L1
2026-05-06T11:32:46.897Z 242.41 Sample.Periodic Raw Voltage Outlet V L1
2026-05-06T11:33:46.897Z 10255971.5 Sample.Periodic Raw Energy.Active.Import.Register Outlet Wh L1
2026-05-06T11:33:46.897Z 5.54 Sample.Periodic Raw Current.Import Outlet A L1
2026-05-06T11:33:46.897Z 241.51 Sample.Periodic Raw Voltage Outlet V L1
2026-05-06T11:34:46.897Z 10255987.4 Sample.Periodic Raw Energy.Active.Import.Register Outlet Wh L1
2026-05-06T11:34:46.897Z 3.48 Sample.Periodic Raw Current.Import Outlet A L1
2026-05-06T11:35:46.896Z 10256000.0 Sample.Periodic Raw Energy.Active.Import.Register Outlet Wh L1
2026-05-06T11:35:46.896Z 3.08 Sample.Periodic Raw Current.Import Outlet A L1
2026-05-06T11:35:46.896Z 241.62 Sample.Periodic Raw Voltage Outlet V L1
2026-05-06T11:36:46.897Z 10256011.6 Sample.Periodic Raw Energy.Active.Import.Register Outlet Wh L1
2026-05-06T11:36:46.897Z 241.60 Sample.Periodic Raw Voltage Outlet V L1
2026-05-06T11:38:46.897Z 10256027.4 Sample.Periodic Raw Energy.Active.Import.Register Outlet Wh L1
2026-05-06T11:38:46.897Z 241.77 Sample.Periodic Raw Voltage Outlet V L1
2026-05-06T11:39:46.897Z 241.97 Sample.Periodic Raw Voltage Outlet V L1
2026-05-06T11:41:46.897Z 241.61 Sample.Periodic Raw Voltage Outlet V L1
2026-05-06T11:42:46.897Z 241.80 Sample.Periodic Raw Voltage Outlet V L1
2026-05-06T11:43:46.897Z 10256037.4 Sample.Periodic Raw Energy.Active.Import.Register Outlet Wh L1
2026-05-06T11:43:46.897Z 4.70 Sample.Periodic Raw Current.Import Outlet A L1
2026-05-06T11:43:46.897Z 241.20 Sample.Periodic Raw Voltage Outlet V L1
2026-05-06T11:44:46.897Z 10256052.1 Sample.Periodic Raw Energy.Active.Import.Register Outlet Wh L1
2026-05-06T11:45:46.897Z 10256064.0 Sample.Periodic Raw Energy.Active.Import.Register Outlet Wh L1
2026-05-06T11:45:46.897Z 241.44 Sample.Periodic Raw Voltage Outlet V L1
2026-05-06T11:46:46.897Z 10256074.7 Sample.Periodic Raw Energy.Active.Import.Register Outlet Wh L1
2026-05-06T11:46:46.897Z 241.47 Sample.Periodic Raw Voltage Outlet V L1
2026-05-06T11:47:46.897Z 10256082.9 Sample.Periodic Raw Energy.Active.Import.Register Outlet Wh L1
2026-05-06T11:49:46.896Z 241.48 Sample.Periodic Raw Voltage Outlet V L1
2026-05-06T11:50:46.897Z 241.63 Sample.Periodic Raw Voltage Outlet V L1
2026-05-06T11:52:46.897Z 10256085.7 Sample.Periodic Raw Energy.Active.Import.Register Outlet Wh L1
2026-05-06T11:52:46.897Z 5.14 Sample.Periodic Raw Current.Import Outlet A L1
2026-05-06T11:52:46.897Z 240.50 Sample.Periodic Raw Voltage Outlet V L1
2026-05-06T11:53:46.897Z 10256101.5 Sample.Periodic Raw Energy.Active.Import.Register Outlet Wh L1
2026-05-06T11:53:46.897Z 240.81 Sample.Periodic Raw Voltage Outlet V L1
2026-05-06T11:54:46.897Z 10256113.2 Sample.Periodic Raw Energy.Active.Import.Register Outlet Wh L1
2026-05-06T11:55:46.897Z 10256123.6 Sample.Periodic Raw Energy.Active.Import.Register Outlet Wh L1
2026-05-06T11:55:46.897Z 240.56 Sample.Periodic Raw Voltage Outlet V L1
2026-05-06T11:56:46.897Z 10256124.8 Sample.Periodic Raw Energy.Active.Import.Register Outlet Wh L1
2026-05-06T11:56:46.897Z 0.00 Sample.Periodic Raw Current.Import Outlet A L1
2026-05-06T11:56:46.897Z 240.98 Sample.Periodic Raw Voltage Outlet V L1
2026-05-06T11:57:46.896Z 241.35 Sample.Periodic Raw Voltage Outlet V L1
2026-05-06T11:58:46.897Z 240.74 Sample.Periodic Raw Voltage Outlet V L1
2026-05-06T11:59:46.897Z 241.00 Sample.Periodic Raw Voltage Outlet V L1
2026-05-06T12:00:46.897Z 240.90 Sample.Periodic Raw Voltage Outlet V L1
2026-05-06T12:01:46.897Z 240.87 Sample.Periodic Raw Voltage Outlet V L1
2026-05-06T12:02:46.897Z 241.07 Sample.Periodic Raw Voltage Outlet V L1
2026-05-06T12:04:46.896Z 241.17 Sample.Periodic Raw Voltage Outlet V L1
2026-05-06T12:05:46.897Z 240.96 Sample.Periodic Raw Voltage Outlet V L1
2026-05-06T12:07:46.897Z 241.15 Sample.Periodic Raw Voltage Outlet V L1
2026-05-06T12:08:46.897Z 241.23 Sample.Periodic Raw Voltage Outlet V L1
2026-05-06T12:09:46.896Z 241.24 Sample.Periodic Raw Voltage Outlet V L1
2026-05-06T12:10:46.897Z 241.11 Sample.Periodic Raw Voltage Outlet V L1
2026-05-06T12:14:46.897Z 240.72 Sample.Periodic Raw Voltage Outlet V L1
2026-05-06T12:15:46.897Z 240.47 Sample.Periodic Raw Voltage Outlet V L1
2026-05-06T12:16:46.897Z 240.73 Sample.Periodic Raw Voltage Outlet V L1
2026-05-06T12:17:46.897Z 240.33 Sample.Periodic Raw Voltage Outlet V L1
2026-05-06T12:18:46.896Z 240.71 Sample.Periodic Raw Voltage Outlet V L1
2026-05-06T12:19:46.897Z 241.06 Sample.Periodic Raw Voltage Outlet V L1
2026-05-06T12:20:46.897Z 241.25 Sample.Periodic Raw Voltage Outlet V L1